Aérodrome :
LOGIN :

S'inscrire | Disclaimer

   EN    FR    IT 

 










Légende :    VFR   VFR Marginal   IFR   IFR Intensif   IFR Très Intensif
Visi : 
Plafond : 
>= 8 km
>= 3000ft
5 à 8 km
1000 à 3000 ft
1500m à 5 km
500 à 1000 ft
800 à 1500m
200 à 500 ft
< 800m
< 200 ft
Symboles :   Orages  Brouillard  Fortes neiges  Fortes précipitations  Vent > 20 kt
SIGMETs :   Divers  Orages  Givrage  Turbulence  Onde Orograph.  Cendres Volcan.







- Altitude de l'aérodrome : 117 ft
- Code IATA : NWI
- Voir les cartes d'approche


EGSH - Norwich

DERNIER METAR :
  • 240950Z 14007KT 100V190 7000 FEW024 18/12 Q1021 NOSIG

METARs EXPIRÉS :
  • 240920Z 13009KT 090V180 7000 FEW016 17/12 Q1021 NOSIG
  • 240850Z 13007KT 100V190 8000 FEW016 17/12 Q1022 NOSIG
  • 240820Z 13006KT 090V180 8000 NSC 16/12 Q1021 NOSIG
  • 240750Z 13005KT 090V180 9000 NSC 15/12 Q1021
  • 240720Z 13005KT 090V170 9000 NSC 14/11 Q1021 NOSIG

TAF TAF EGSH
Valide du 24 à 09h jusqu'au 24 à 18h UTC


240801Z 2409/2418 13009KT CAVOK
PROB30
TEMPO 2409/2411 9000
PROB40
TEMPO 2416/2418 8000
ATIS : +44 1603 420 640
Pas de NOTAMs connus pour ce terrain.



MET'MAP, la Météo Aéronautique d'un coup d'oeil ! - Copyright ORBIFLY Décembre 2007 - Disclaimer

ORBIFLY MET'MAP TEAM :

Programmation & Développement : Alexandra Zaïnal
Conception & Développement : Baudouin d'Aumeries
Co-Programmation & Développement : Marc-Olivier Méhu
Soutien technique & logistique : Manuel Goepfert

Contact : metmap@orbifly.com




SOURCES & CREDITS :

   NOAA